GW1174 Weather Reports


time (UTC)temp
F
wind
direction
speed
knots
gust
knots
rain 1hr
in
rain 24hr
in
rain mn
in
humidity
%
barometer
mb
20260906025016 48 20 7.8 9.6 0.00 0.20 0.20 23 1052.7
20260906024017 49 22 7.8 9.6 0.00 0.20 0.20 24 1053.1
20260906023036 45 0.0 0.0 0.00 0.03 0.00 89 1026.4
20260906022016 46 0.0 0.0 0.00 0.06 0.00 90 1026.2
20260906021017 46 0.0 0.0 0.00 0.07 0.00 89 1026.0
20260906020016 46 0.0 0.0 0.00 0.09 0.00 89 1026.1
20260906015037 46 0.0 0.0 0.00 0.09 0.00 89 1026.0
20260906014037 54 34 7.8 9.6 0.02 0.20 0.20 26 1055.6
20260906013037 46 0.0 0.0 0.00 0.09 0.00 88 1025.8
20260906012037 56 39 7.8 9.6 0.04 0.20 0.20 27 1056.5
20260906012016 46 0.0 0.0 0.00 0.09 0.00 88 1025.7
20260906011016 57 42 7.8 9.6 0.05 0.20 0.20 27 1057.0
20260906010018 47 0.0 0.0 0.00 0.09 0.00 87 1025.6
20260906005017 58 47 7.8 8.7 0.06 0.20 0.19 28 1058.0
20260906004017 59 49 7.8 8.7 0.06 0.20 0.18 28 1058.5
20260906003016 48 0.0 0.0 0.00 0.09 0.00 87 1025.5
20260906002017 61 55 7.0 8.7 0.07 0.20 0.16 29 1059.6
20260906001017 61 58 7.0 8.7 0.07 0.20 0.15 30 1060.2
20260906000037 62 61 7.0 8.7 0.07 0.20 0.14 30 1060.8
20260905235016 49 0.0 0.0 0.00 0.09 0.00 86 1025.2
20260905234018 63 67 7.0 8.7 0.07 0.20 0.12 31 1062.0
20260905234016 49 0.0 0.0 0.00 0.09 0.00 85 1025.1
20260905233017 64 70 7.0 8.7 0.06 0.20 0.10 32 1062.6
20260905232017 65 73 7.0 8.7 0.06 0.20 0.09 32 1063.2
20260905231017 65 76 7.0 7.8 0.06 0.20 0.08 33 1063.8
20260905230017 66 79 7.0 7.8 0.07 0.20 0.07 33 1064.5
20260905225017 66 83 7.0 7.8 0.06 0.20 0.06 34 1065.1
20260905224037 67 86 7.0 7.8 0.05 0.20 0.05 34 1065.8
20260905223017 67 89 7.0 7.8 0.04 0.20 0.04 35 1066.4
20260905222017 68 93 6.1 7.8 0.03 0.20 0.03 35 1067.1
20260905221017 68 96 6.1 7.8 0.02 0.20 0.02 36 1067.8
20260905220017 68 100 6.1 7.8 0.00 0.20 0.00 37 1068.5
20260905215017 53 0.0 0.0 0.00 0.09 0.09 78 1024.4
20260905214017 69 107 6.1 7.0 0.00 0.20 0.20 38 1069.9
20260905213017 69 110 6.1 7.0 0.00 0.20 0.20 38 1070.6
20260905212057 55 0.0 0.0 0.00 0.09 0.09 75 1024.2
20260905212037 69 114 6.1 7.0 0.00 0.20 0.20 39 1071.3
20260905211017 70 118 6.1 7.0 0.00 0.20 0.20 40 1072.0
20260905210017 70 121 6.1 7.0 0.00 0.20 0.20 40 1072.8
20260905205017 56 0.0 0.0 0.00 0.09 0.09 75 1024.2
20260905204017 70 129 5.2 7.0 0.00 0.20 0.20 41 1074.3
20260905203017 70 133 5.2 7.0 0.00 0.20 0.20 42 1075.0
20260905202021 56 0.0 0.0 0.00 0.09 0.09 74 1023.7
20260905202017 70 136 5.2 6.1 0.00 0.20 0.20 43 1075.8
20260905201017 57 0.0 0.0 0.00 0.09 0.09 73 1023.5
20260905200017 70 144 5.2 6.1 0.00 0.20 0.20 44 1077.3
20260905195017 57 0.0 0.0 0.00 0.09 0.09 72 1023.2
20260905194037 70 152 5.2 6.1 0.00 0.20 0.20 45 1078.8
20260905193017 69 156 5.2 6.1 0.00 0.20 0.20 46 1079.6
20260905192017 69 159 5.2 6.1 0.00 0.20 0.20 47 1080.3
20260905191017 59 0.0 0.0 0.00 0.09 0.09 68 1023.0
20260905190037 69 167 4.3 5.2 0.00 0.20 0.20 48 1081.9
20260905185037 60 0.0 0.0 0.00 0.09 0.09 67 1022.9
20260905184019 60 0.0 0.0 0.00 0.09 0.09 67 1022.8
20260905184017 68 175 4.3 5.2 0.00 0.20 0.20 49 1083.4
20260905183017 67 179 4.3 5.2 0.00 0.20 0.20 50 1084.2
20260905182016 67 183 4.3 5.2 0.00 0.20 0.20 51 1085.0
20260905181017 62 0.0 2.6 0.00 0.09 0.09 64 1022.2
20260905180017 66 191 4.3 5.2 0.00 0.20 0.20 52 1086.5
20260905175017 65 195 4.3 5.2 0.00 0.20 0.20 52 1087.3
20260905174017 65 199 3.5 4.3 0.00 0.20 0.20 53 1088.1
20260905173037 64 203 3.5 4.3 0.00 0.20 0.20 54 1088.9
20260905172017 64 206 3.5 4.3 0.00 0.20 0.20 54 1089.6
20260905171017 63 210 3.5 4.3 0.00 0.20 0.20 55 1090.4
20260905170016 67 315 4.3 10.4 0.00 0.09 0.09 55 1021.7
20260905165017 62 218 3.5 4.3 0.00 0.20 0.20 56 1091.9
20260905164037 61 222 3.5 4.3 0.00 0.20 0.20 57 1092.7
20260905163017 60 226 3.5 4.3 0.00 0.20 0.20 58 1093.4
20260905162037 59 229 3.5 3.5 0.00 0.20 0.20 58 1094.2
20260905161017 59 233 3.5 3.5 0.00 0.20 0.20 59 1094.9
20260905160017 58 237 2.6 3.5 0.00 0.20 0.20 59 1095.7
20260905155017 57 241 2.6 3.5 0.00 0.20 0.20 60 1096.4
20260905154017 56 244 2.6 3.5 0.00 0.20 0.20 61 1097.1
20260905153016 55 248 2.6 3.5 0.00 0.20 0.20 61 1097.8
20260905152058 55 252 2.6 3.5 0.00 0.20 0.20 62 1098.6
20260905152037 70 315 6.1 15.6 0.00 0.09 0.09 53 1020.6
20260905151017 54 255 2.6 3.5 0.00 0.20 0.20 63 1099.3
20260905150017 53 259 2.6 2.6 0.00 0.20 0.20 63 1100.0
20260905145037 52 262 2.6 2.6 0.00 0.20 0.20 64 1100.7
20260905144037 51 266 2.6 2.6 0.00 0.20 0.20 64 1101.4
20260905143037 50 269 2.6 2.6 0.00 0.20 0.20 65 1102.0
20260905142017 49 273 1.7 2.6 0.00 0.20 0.20 65 1102.7
20260905141016 48 276 1.7 2.6 0.00 0.20 0.20 66 1103.4
20260905140037 48 279 1.7 2.6 0.00 0.20 0.20 67 1104.0
20260905140016 72 270 8.7 17.4 0.00 0.09 0.09 49 1020.5
20260905135017 47 282 1.7 2.6 0.00 0.20 0.20 67 1104.7
20260905134017 46 286 1.7 2.6 0.00 0.20 0.20 68 1105.3
20260905133037 45 289 1.7 1.7 0.00 0.20 0.20 68 1105.9
20260905132037 44 292 1.7 1.7 0.00 0.20 0.20 69 1106.5
20260905131016 73 270 5.2 10.4 0.00 0.09 0.09 55 1020.4
20260905130017 43 298 1.7 1.7 0.00 0.20 0.20 70 1107.7
20260905125017 42 301 1.7 1.7 0.00 0.20 0.20 70 1108.3
20260905124017 41 304 1.7 1.7 0.00 0.20 0.20 71 1108.9
20260905123017 40 307 0.9 1.7 0.00 0.20 0.20 71 1109.4
20260905123015 68 315 3.5 7.8 0.00 0.09 0.09 66 1020.4
20260905122038 68 293 5.2 9.6 0.00 0.09 0.09 67 1020.4
20260905121037 67 315 3.5 8.7 0.00 0.09 0.09 68 1020.4
20260905120038 67 315 4.3 9.6 0.00 0.09 0.09 67 1020.6
20260905115017 67 293 2.6 9.6 0.00 0.09 0.09 66 1020.5
20260905114017 37 320 0.9 0.9 0.00 0.20 0.20 73 1112.0
20260905113017 68 293 3.5 9.6 0.00 0.09 0.09 67 1020.7
20260905112039 67 293 4.3 9.6 0.00 0.09 0.09 66 1020.7
20260905111018 67 270 6.1 13.0 0.00 0.09 0.09 65 1020.9
20260905110037 34 329 0.9 0.9 0.00 0.20 0.20 75 1113.9
20260905105039 67 248 6.1 9.6 0.00 0.09 0.09 68 1020.8
20260905105017 34 331 0.9 0.9 0.00 0.20 0.20 75 1114.3
20260905104017 67 270 6.1 12.2 0.00 0.09 0.09 69 1021.0
20260905103018 65 270 5.2 10.4 0.00 0.09 0.09 72 1020.9
20260905102017 65 293 4.3 10.4 0.00 0.09 0.09 76 1021.1
20260905101037 32 339 0.9 0.9 0.00 0.20 0.20 77 1115.9
20260905100017 32 341 0.9 0.9 0.00 0.20 0.20 77 1116.2
20260905095017 65 293 4.3 9.6 0.00 0.09 0.09 74 1021.2
20260905094017 31 344 0.0 0.9 0.00 0.20 0.20 77 1116.9
20260905093017 31 346 0.0 0.0 0.00 0.20 0.20 78 1117.2
20260905092037 31 347 0.0 0.0 0.00 0.20 0.20 78 1117.5
20260905092017 63 270 4.3 8.7 0.00 0.09 0.09 78 1021.1
20260905091017 63 225 4.3 7.0 0.00 0.09 0.09 78 1021.2
20260905090037 64 248 6.1 10.4 0.00 0.09 0.09 78 1021.2
20260905085017 30 351 0.0 0.0 0.00 0.20 0.20 79 1118.3
20260905084017 63 225 4.3 7.8 0.00 0.09 0.09 82 1021.0
20260905083017 30 354 0.0 0.0 0.00 0.20 0.20 79 1118.7
20260905082017 30 355 0.0 0.0 0.00 0.20 0.20 79 1118.9
20260905081017 61 270 4.3 7.0 0.00 0.09 0.09 88 1020.9
20260905080017 30 356 0.0 0.0 0.00 0.20 0.20 79 1119.3
20260905075037 59 248 6.1 10.4 0.00 0.09 0.09 90 1020.6
20260905074017 59 225 2.6 6.1 0.00 0.09 0.09 91 1020.5
20260905073021 59 270 2.6 7.8 0.00 0.09 0.09 92 1020.2
20260905073017 31 358 0.0 0.0 0.00 0.20 0.20 80 1119.7
20260905072017 59 293 0.9 1.7 0.00 0.09 0.09 92 1020.2
20260905071017 58 203 2.6 4.3 0.00 0.09 0.09 92 1020.1
20260905070037 58 225 1.7 3.5 0.00 0.09 0.09 92 1020.0
20260905065017 58 203 1.7 3.5 0.00 0.09 0.09 92 1019.9
20260905064017 32 360 0.0 0.0 0.00 0.20 0.20 80 1120.0
20260905063017 57 158 2.6 5.2 0.00 0.09 0.09 92 1019.7
20260905062017 57 158 1.7 3.5 0.00 0.09 0.09 92 1019.6
20260905061017 56 158 1.7 3.5 0.00 0.09 0.09 92 1019.6
20260905060017 34 360 0.0 0.0 0.00 0.20 0.20 80 1119.9
20260905055017 55 0.0 0.0 0.00 0.09 0.09 91 1019.4
20260905054017 35 359 0.0 0.0 0.00 0.20 0.20 80 1119.8
20260905053017 55 0.0 0.9 0.00 0.09 0.09 91 1019.4
20260905052017 36 358 0.0 0.0 0.00 0.20 0.20 80 1119.6
20260905051017 37 357 0.0 0.0 0.00 0.20 0.20 80 1119.5
20260905050017 38 357 0.0 0.0 0.00 0.20 0.20 79 1119.3
20260905045017 54 0.0 0.0 0.00 0.09 0.09 90 1019.0
20260905044017 54 0.0 0.0 0.00 0.09 0.09 90 1018.8
20260905043037 40 354 0.0 0.0 0.00 0.20 0.20 79 1118.8
20260905043018 54 0.0 0.9 0.00 0.09 0.09 90 1018.6
20260905042037 41 353 0.0 0.0 0.00 0.20 0.20 79 1118.6
20260905041017 41 352 0.0 0.0 0.00 0.20 0.20 79 1118.4
20260905040017 42 351 0.0 0.0 0.00 0.20 0.20 78 1118.2
20260905035057 54 0.0 0.9 0.00 0.09 0.09 88 1018.6
20260905034017 54 0.0 0.9 0.01 0.09 0.09 88 1018.1
20260905033017 45 347 0.0 0.0 0.00 0.20 0.20 78 1117.4
20260905032017 45 345 0.0 0.9 0.00 0.20 0.20 78 1117.0
20260905031017 46 344 0.0 0.9 0.00 0.20 0.20 77 1116.7
20260905030017 47 342 0.9 0.9 0.00 0.20 0.20 77 1116.4